Location: Newark
(39.0622°N, 106.5590°E)
Time: 15:15:28
(UTC+00:00)

Courier 1B Rocket - Visible Passes

Search period start: 26 January 2020 00:00
Search period end: 05 February 2020 00:00
Orbit: 920 x 1202 km, 28.2° (Epoch: 25 January)

Date Brightness Start Highest point End Pass type
(mag) Time Alt. Az. Time Alt. Az. Time Alt. Az.
01 Feb 7.8 23:25:31 10° S 23:29:13 14° SSE 23:32:55 10° SE visible
03 Feb 7.6 23:14:51 10° SSW 23:20:01 19° SSE 23:25:12 10° ESE visible
04 Feb 7.6 22:15:24 10° S 22:19:06 14° SSE 22:22:52 10° ESE visible
